Time,TemperatureF,DewpointF,PressureIn,WindDirection,WindDirectionDegrees,WindSpeedMPH,WindSpeedGustMPH,Humidity,HourlyPrecipIn,Conditions,Clouds,dailyrainin,SolarRadiationWatts/m^2,SoftwareType,DateUTC
2013-01-28 00:00:00,31.4,26.2,30.56,SSE,168,4.0,9.0,81,0.00,,---,0.05,0.00,VWS V14.01,2013-01-28 05:00:00,
2013-01-28 00:03:00,31.4,26.2,30.56,SSW,209,5.0,5.0,81,0.00,,---,0.00,0.00,VWS V14.01,2013-01-28 05:03:00,
2013-01-28 00:05:00,31.5,26.4,30.56,SSE,155,0.0,5.0,81,0.00,,---,0.00,0.00,VWS V14.01,2013-01-28 05:05:00,
2013-01-28 00:10:00,31.4,26.5,30.56,South,170,3.0,6.0,82,0.00,,---,0.00,0.00,VWS V14.01,2013-01-28 05:10:00,
2013-01-28 00:15:00,31.4,26.8,30.56,South,173,0.0,6.0,83,0.00,,---,0.00,0.00,VWS V14.01,2013-01-28 05:15:00,
2013-01-28 00:20:00,31.4,26.8,30.56,SSW,210,2.0,6.0,83,0.00,,---,0.00,0.00,VWS V14.01,2013-01-28 05:20:00,
2013-01-28 00:25:00,31.4,26.8,30.56,SSW,205,0.0,7.0,83,0.00,,---,0.00,0.00,VWS V14.01,2013-01-28 05:25:00,
2013-01-28 00:30:00,31.3,27.0,30.55,SSE,164,0.0,7.0,84,0.00,,---,0.00,0.00,VWS V14.01,2013-01-28 05:30:00,
2013-01-28 00:35:00,31.3,27.3,30.55,SW,219,0.0,3.0,85,0.00,,---,0.00,0.00,VWS V14.01,2013-01-28 05:35:00,
2013-01-28 00:40:00,31.2,27.2,30.55,South,191,0.0,4.0,85,0.00,,---,0.00,0.00,VWS V14.01,2013-01-28 05:40:00,
2013-01-28 00:45:00,31.2,27.2,30.55,SE,144,0.0,4.0,85,0.00,,---,0.00,0.00,VWS V14.01,2013-01-28 05:45:00,
2013-01-28 00:50:00,31.2,27.2,30.54,ENE,64,0.0,4.0,85,0.00,,---,0.00,0.00,VWS V14.01,2013-01-28 05:50:00,
2013-01-28 00:55:00,31.1,27.4,30.55,SSE,161,0.0,5.0,86,0.00,,---,0.00,0.00,VWS V14.01,2013-01-28 05:55:00,
2013-01-28 01:00:00,31.1,27.4,30.55,SSE,165,0.0,6.0,86,0.00,,---,0.00,0.00,VWS V14.01,2013-01-28 06:00:00,
2013-01-28 01:05:00,31.1,27.4,30.55,SSE,159,0.0,3.0,86,0.00,,---,0.00,0.00,VWS V14.01,2013-01-28 06:05:00,
2013-01-28 01:10:00,31.1,27.4,30.55,SSW,210,0.0,6.0,86,0.00,,---,0.00,0.00,VWS V14.01,2013-01-28 06:10:00,
2013-01-28 01:15:00,31.1,27.4,30.55,North,5,0.0,6.0,86,0.00,,---,0.00,0.00,VWS V14.01,2013-01-28 06:15:00,
2013-01-28 01:20:00,31.1,27.4,30.54,SSE,161,3.0,6.0,86,0.00,,---,0.00,0.00,VWS V14.01,2013-01-28 06:20:00,
2013-01-28 01:25:00,31.1,27.4,30.53,South,177,3.0,6.0,86,0.00,,---,0.00,0.00,VWS V14.01,2013-01-28 06:25:00,
2013-01-28 01:30:00,31.1,27.4,30.53,ENE,71,0.0,9.0,86,0.00,,---,0.00,0.00,VWS V14.01,2013-01-28 06:30:00,
2013-01-28 01:31:00,31.1,27.4,30.54,SE,143,0.0,9.0,86,0.00,,---,0.00,0.00,VWS V14.01,2013-01-28 06:31:00,
2013-01-28 01:36:00,31.1,27.4,30.54,SSE,167,0.0,4.0,86,0.00,,---,0.00,0.00,VWS V14.01,2013-01-28 06:36:00,
2013-01-28 01:41:00,31.1,27.4,30.54,South,171,4.0,8.0,86,0.00,,---,0.00,0.00,VWS V14.01,2013-01-28 06:41:00,
2013-01-28 01:46:00,31.1,27.7,30.54,ENE,68,0.0,8.0,87,0.00,,---,0.00,0.00,VWS V14.01,2013-01-28 06:46:00,
2013-01-28 01:51:00,31.1,27.7,30.54,East,96,1.0,8.0,87,0.00,,---,0.00,0.00,VWS V14.01,2013-01-28 06:51:00,
2013-01-28 01:56:00,31.2,27.8,30.54,South,189,4.0,8.0,87,0.00,,---,0.00,0.00,VWS V14.01,2013-01-28 06:56:00,
2013-01-28 02:00:00,31.2,27.8,30.54,South,173,5.0,8.0,87,0.00,,---,0.00,0.00,VWS V14.01,2013-01-28 07:00:00,
2013-01-28 02:01:00,31.1,27.4,30.54,SSE,165,0.0,8.0,86,0.00,,---,0.00,0.00,VWS V14.01,2013-01-28 07:01:00,
2013-01-28 02:06:00,31.2,27.8,30.54,SSE,161,0.0,7.0,87,0.00,,---,0.00,0.00,VWS V14.01,2013-01-28 07:06:00,
2013-01-28 02:11:00,31.1,27.4,30.54,SSE,152,0.0,7.0,86,0.00,,---,0.00,0.00,VWS V14.01,2013-01-28 07:11:00,
2013-01-28 02:16:00,31.2,27.8,30.53,South,190,8.0,8.0,87,0.00,,---,0.00,0.00,VWS V14.01,2013-01-28 07:16:00,
2013-01-28 02:21:00,31.2,27.8,30.53,South,173,7.0,9.0,87,0.00,,---,0.00,0.00,VWS V14.01,2013-01-28 07:21:00,
2013-01-28 02:26:00,31.2,27.8,30.54,SSW,192,4.0,9.0,87,0.00,,---,0.00,0.00,VWS V14.01,2013-01-28 07:26:00,
2013-01-28 02:30:00,31.2,27.8,30.53,SSE,165,4.0,9.0,87,0.00,,---,0.00,0.00,VWS V14.01,2013-01-28 07:30:00,
2013-01-28 02:31:00,31.2,27.8,30.53,South,182,3.0,9.0,87,0.00,,---,0.00,0.00,VWS V14.01,2013-01-28 07:31:00,
2013-01-28 02:36:00,31.2,27.8,30.53,South,173,1.0,5.0,87,0.00,,---,0.00,0.00,VWS V14.01,2013-01-28 07:36:00,
2013-01-28 02:41:00,31.2,28.1,30.53,SSE,155,0.0,7.0,88,0.00,,---,0.00,0.00,VWS V14.01,2013-01-28 07:41:00,
2013-01-28 02:46:00,31.2,28.1,30.53,SSE,159,1.0,7.0,88,0.00,,---,0.00,0.00,VWS V14.01,2013-01-28 07:46:00,
2013-01-28 02:51:00,31.2,28.1,30.53,SSE,161,3.0,7.0,88,0.00,,---,0.00,0.00,VWS V14.01,2013-01-28 07:51:00,
2013-01-28 02:57:00,31.1,28.0,30.53,SSE,163,4.0,7.0,88,0.00,,---,0.00,0.00,VWS V14.01,2013-01-28 07:57:00,
2013-01-28 03:00:00,31.1,28.0,30.52,South,171,2.0,9.0,88,0.00,,---,0.00,0.00,VWS V14.01,2013-01-28 08:00:00,
2013-01-28 03:02:00,31.1,28.0,30.52,South,171,0.0,9.0,88,0.00,,---,0.00,0.00,VWS V14.01,2013-01-28 08:02:00,
2013-01-28 03:07:00,31.1,28.0,30.52,South,184,2.0,4.0,88,0.00,,---,0.00,0.00,VWS V14.01,2013-01-28 08:07:00,
2013-01-28 03:12:00,31.1,28.0,30.51,South,175,0.0,5.0,88,0.00,,---,0.00,0.00,VWS V14.01,2013-01-28 08:12:00,
2013-01-28 03:17:00,31.1,28.0,30.52,South,190,0.0,5.0,88,0.00,,---,0.00,0.00,VWS V14.01,2013-01-28 08:17:00,
2013-01-28 03:22:00,31.1,28.0,30.51,SSE,162,0.0,6.0,88,0.00,,---,0.00,0.00,VWS V14.01,2013-01-28 08:22:00,
2013-01-28 03:27:00,31.0,27.9,30.51,SSE,167,0.0,6.0,88,0.00,,---,0.00,0.00,VWS V14.01,2013-01-28 08:27:00,
2013-01-28 03:30:00,31.1,28.0,30.52,SW,224,3.0,6.0,88,0.00,,---,0.00,0.00,VWS V14.01,2013-01-28 08:30:00,
2013-01-28 03:32:00,31.1,28.0,30.52,South,184,9.0,9.0,88,0.00,,---,0.00,0.00,VWS V14.01,2013-01-28 08:32:00,
2013-01-28 03:37:00,31.1,28.0,30.52,SSE,165,1.0,9.0,88,0.00,,---,0.00,0.00,VWS V14.01,2013-01-28 08:37:00,
2013-01-28 03:42:00,31.1,28.0,30.51,South,173,3.0,9.0,88,0.00,,---,0.00,0.00,VWS V14.01,2013-01-28 08:42:00,
2013-01-28 03:47:00,31.1,28.0,30.51,SSE,159,1.0,9.0,88,0.00,,---,0.00,0.00,VWS V14.01,2013-01-28 08:47:00,
2013-01-28 03:53:00,31.1,28.0,30.52,South,169,5.0,9.0,88,0.00,,---,0.00,0.00,VWS V14.01,2013-01-28 08:53:00,
2013-01-28 03:58:00,31.1,28.2,30.52,SSE,164,2.0,9.0,89,0.00,,---,0.00,0.00,VWS V14.01,2013-01-28 08:58:00,
2013-01-28 04:00:00,31.1,28.2,30.51,South,171,0.0,9.0,89,0.00,,---,0.00,0.00,VWS V14.01,2013-01-28 09:00:00,
2013-01-28 04:03:00,31.1,28.2,30.52,South,171,0.0,0.0,89,0.00,,---,0.00,0.00,VWS V14.01,2013-01-28 09:03:00,
2013-01-28 04:08:00,31.2,28.3,30.51,SSE,167,3.0,5.0,89,0.00,,---,0.00,0.00,VWS V14.01,2013-01-28 09:08:00,
2013-01-28 04:13:00,31.1,28.5,30.51,SSE,161,3.0,5.0,90,0.00,,---,0.00,0.00,VWS V14.01,2013-01-28 09:13:00,
2013-01-28 04:18:00,31.1,28.5,30.51,SSE,165,1.0,5.0,90,0.00,,---,0.00,0.00,VWS V14.01,2013-01-28 09:18:00,
2013-01-28 04:23:00,31.1,28.5,30.51,SSE,156,0.0,5.0,90,0.00,,---,0.00,0.00,VWS V14.01,2013-01-28 09:23:00,
2013-01-28 04:28:00,31.1,28.5,30.51,SE,127,0.0,5.0,90,0.00,,---,0.00,0.00,VWS V14.01,2013-01-28 09:28:00,
2013-01-28 04:30:00,31.0,28.4,30.51,SSE,155,4.0,7.0,90,0.00,,---,0.00,0.00,VWS V14.01,2013-01-28 09:30:00,
2013-01-28 04:33:00,31.1,28.5,30.51,SSW,211,5.0,6.0,90,0.00,,---,0.00,0.00,VWS V14.01,2013-01-28 09:33:00,
2013-01-28 04:38:00,31.0,28.4,30.51,South,191,2.0,7.0,90,0.00,,---,0.00,0.00,VWS V14.01,2013-01-28 09:38:00,
2013-01-28 04:43:00,31.0,28.7,30.51,SSW,213,0.0,7.0,91,0.00,,---,0.00,0.00,VWS V14.01,2013-01-28 09:43:00,
2013-01-28 04:48:00,31.0,28.7,30.50,South,169,3.0,7.0,91,0.00,,---,0.00,0.00,VWS V14.01,2013-01-28 09:48:00,
2013-01-28 04:53:00,31.0,28.7,30.50,SSW,196,3.0,7.0,91,0.00,,---,0.00,0.00,VWS V14.01,2013-01-28 09:53:00,
2013-01-28 04:58:00,31.0,28.7,30.51,South,171,1.0,7.0,91,0.00,,---,0.00,0.00,VWS V14.01,2013-01-28 09:58:00,
2013-01-28 05:00:00,31.0,28.7,30.51,SSW,198,3.0,7.0,91,0.00,,---,0.00,0.00,VWS V14.01,2013-01-28 10:00:00,
2013-01-28 05:04:00,31.0,28.7,30.51,South,180,3.0,7.0,91,0.00,,---,0.00,0.00,VWS V14.01,2013-01-28 10:04:00,
2013-01-28 05:08:00,31.1,28.8,30.50,SSW,202,1.0,9.0,91,0.00,,---,0.00,0.00,VWS V14.01,2013-01-28 10:08:00,
2013-01-28 05:14:00,31.1,28.8,30.51,SSE,157,3.0,9.0,91,0.00,,---,0.00,0.00,VWS V14.01,2013-01-28 10:14:00,
2013-01-28 05:19:00,31.0,28.7,30.50,SSW,209,0.0,9.0,91,0.00,,---,0.00,0.00,VWS V14.01,2013-01-28 10:19:00,
2013-01-28 05:24:00,31.0,28.7,30.51,South,178,2.0,9.0,91,0.00,,---,0.00,0.00,VWS V14.01,2013-01-28 10:24:00,
2013-01-28 05:29:00,31.0,28.7,30.51,SSW,201,0.0,9.0,91,0.00,,---,0.00,0.00,VWS V14.01,2013-01-28 10:29:00,
2013-01-28 05:30:00,31.0,28.7,30.50,SSE,161,0.0,9.0,91,0.00,,---,0.00,0.00,VWS V14.01,2013-01-28 10:30:00,
2013-01-28 05:34:00,31.0,28.7,30.50,SSE,161,1.0,2.0,91,0.00,,---,0.00,0.00,VWS V14.01,2013-01-28 10:34:00,
2013-01-28 05:39:00,31.0,28.7,30.50,SSE,154,0.0,5.0,91,0.00,,---,0.00,0.00,VWS V14.01,2013-01-28 10:39:00,
2013-01-28 05:44:00,31.0,28.7,30.50,SSE,165,0.0,5.0,91,0.00,,---,0.00,0.00,VWS V14.01,2013-01-28 10:44:00,
2013-01-28 05:49:00,31.0,28.7,30.50,SSE,160,0.0,5.0,91,0.00,,---,0.00,0.00,VWS V14.01,2013-01-28 10:49:00,
2013-01-28 05:54:00,31.1,28.8,30.51,SSE,166,0.0,5.0,91,0.00,,---,0.00,0.00,VWS V14.01,2013-01-28 10:54:00,
2013-01-28 05:59:00,31.1,28.8,30.51,WSW,238,2.0,5.0,91,0.00,,---,0.00,0.00,VWS V14.01,2013-01-28 10:59:00,
2013-01-28 06:00:00,31.1,28.8,30.51,SSE,164,0.0,5.0,91,0.00,,---,0.00,0.00,VWS V14.01,2013-01-28 11:00:00,
2013-01-28 06:04:00,31.1,28.8,30.51,SSE,165,0.0,0.0,91,0.00,,---,0.00,0.00,VWS V14.01,2013-01-28 11:04:00,
2013-01-28 06:09:00,31.2,29.1,30.52,South,173,0.0,5.0,92,0.00,,---,0.00,0.00,VWS V14.01,2013-01-28 11:09:00,
2013-01-28 06:14:00,31.2,28.9,30.52,South,175,0.0,5.0,91,0.00,,---,0.00,0.00,VWS V14.01,2013-01-28 11:14:00,
2013-01-28 06:19:00,31.3,29.2,30.52,South,178,3.0,5.0,92,0.00,,---,0.00,0.00,VWS V14.01,2013-01-28 11:19:00,
2013-01-28 06:24:00,31.3,29.2,30.52,SSE,168,2.0,5.0,92,0.00,,---,0.00,0.00,VWS V14.01,2013-01-28 11:24:00,
2013-01-28 06:29:00,31.3,29.2,30.51,South,182,1.0,5.0,92,0.00,,---,0.00,0.00,VWS V14.01,2013-01-28 11:29:00,
2013-01-28 06:30:00,31.3,29.0,30.52,South,178,2.0,5.0,91,0.00,,---,0.00,0.00,VWS V14.01,2013-01-28 11:30:00,
2013-01-28 06:34:00,31.3,29.0,30.52,South,173,0.0,3.0,91,0.00,,---,0.00,0.00,VWS V14.01,2013-01-28 11:34:00,
2013-01-28 06:39:00,31.4,29.4,30.52,South,173,0.0,3.0,92,0.00,,---,0.00,0.00,VWS V14.01,2013-01-28 11:39:00,
2013-01-28 06:44:00,31.4,29.4,30.52,SSE,167,0.0,4.0,92,0.00,,---,0.00,0.00,VWS V14.01,2013-01-28 11:44:00,
2013-01-28 06:49:00,31.5,29.5,30.52,SSE,167,0.0,4.0,92,0.00,,---,0.00,0.00,VWS V14.01,2013-01-28 11:49:00,
2013-01-28 06:55:00,31.5,29.2,30.53,SSE,167,0.0,4.0,91,0.00,,---,0.00,0.00,VWS V14.01,2013-01-28 11:55:00,
2013-01-28 07:00:00,31.6,29.3,30.53,SSE,167,0.0,4.0,91,0.00,,---,0.00,0.00,VWS V14.01,2013-01-28 12:00:00,
2013-01-28 07:05:00,31.7,29.4,30.53,ENE,77,0.0,3.0,91,0.00,,---,0.00,0.00,VWS V14.01,2013-01-28 12:05:00,
2013-01-28 07:10:00,31.7,29.4,30.53,South,175,0.0,3.0,91,0.00,,---,0.00,0.00,VWS V14.01,2013-01-28 12:10:00,
2013-01-28 07:15:00,31.7,29.4,30.54,South,175,2.0,3.0,91,0.00,,---,0.00,0.00,VWS V14.01,2013-01-28 12:15:00,
2013-01-28 07:20:00,31.7,29.4,30.52,South,175,0.0,3.0,91,0.00,,---,0.00,0.00,VWS V14.01,2013-01-28 12:20:00,
2013-01-28 07:25:00,31.7,29.4,30.53,South,175,0.0,3.0,91,0.00,,---,0.00,0.00,VWS V14.01,2013-01-28 12:25:00,
2013-01-28 07:30:00,31.7,29.4,30.54,South,175,0.0,3.0,91,0.00,,---,0.00,0.00,VWS V14.01,2013-01-28 12:30:00,
2013-01-28 07:35:00,31.7,29.4,30.54,South,175,0.0,0.0,91,0.00,,---,0.00,11.00,VWS V14.01,2013-01-28 12:35:00,
2013-01-28 07:40:00,31.6,29.3,30.53,South,175,0.0,0.0,91,0.00,,---,0.00,14.00,VWS V14.01,2013-01-28 12:40:00,
2013-01-28 07:45:00,31.6,29.3,30.53,South,175,0.0,0.0,91,0.00,,---,0.00,12.00,VWS V14.01,2013-01-28 12:45:00,
2013-01-28 07:50:00,31.5,29.2,30.53,South,175,0.0,2.0,91,0.00,,---,0.00,18.00,VWS V14.01,2013-01-28 12:50:00,
2013-01-28 07:55:00,31.5,29.2,30.53,South,175,0.0,2.0,91,0.00,,---,0.00,26.00,VWS V14.01,2013-01-28 12:55:00,
2013-01-28 08:00:00,31.5,29.2,30.53,SSE,167,0.0,2.0,91,0.00,,---,0.00,28.00,VWS V14.01,2013-01-28 13:00:00,
2013-01-28 08:05:00,31.5,29.2,30.53,SSE,167,0.0,0.0,91,0.00,,---,0.00,47.00,VWS V14.01,2013-01-28 13:05:00,
2013-01-28 08:11:00,31.6,29.5,30.53,SSE,167,0.0,2.0,92,0.00,,---,0.00,54.00,VWS V14.01,2013-01-28 13:11:00,
2013-01-28 08:16:00,31.8,29.8,30.53,SSE,167,0.0,2.0,92,0.00,,---,0.00,42.00,VWS V14.01,2013-01-28 13:16:00,
2013-01-28 08:21:00,32.0,29.9,30.53,SSE,167,0.0,2.0,92,0.00,,---,0.00,51.00,VWS V14.01,2013-01-28 13:21:00,
2013-01-28 08:26:00,32.1,30.0,30.52,South,173,0.0,2.0,92,0.00,,---,0.00,40.00,VWS V14.01,2013-01-28 13:26:00,
2013-01-28 08:30:00,32.3,30.2,30.52,South,171,0.0,6.0,92,0.00,,---,0.00,53.00,VWS V14.01,2013-01-28 13:30:00,
2013-01-28 08:31:00,32.2,30.1,30.52,South,171,2.0,6.0,92,0.00,,---,0.00,49.00,VWS V14.01,2013-01-28 13:31:00,
2013-01-28 08:36:00,32.4,30.3,30.51,SSW,200,0.0,3.0,92,0.00,,---,0.00,54.00,VWS V14.01,2013-01-28 13:36:00,
2013-01-28 08:41:00,32.6,30.5,30.51,SSW,200,0.0,3.0,92,0.00,,---,0.00,56.00,VWS V14.01,2013-01-28 13:41:00,
2013-01-28 08:46:00,32.8,30.7,30.51,SSW,200,0.0,3.0,92,0.00,,---,0.00,77.00,VWS V14.01,2013-01-28 13:46:00,
2013-01-28 08:52:00,32.9,30.8,30.51,SW,231,3.0,3.0,92,0.00,,---,0.00,76.00,VWS V14.01,2013-01-28 13:52:00,
2013-01-28 08:57:00,33.1,31.0,30.51,SW,231,0.0,3.0,92,0.00,,---,0.00,77.00,VWS V14.01,2013-01-28 13:57:00,
2013-01-28 09:00:00,33.4,31.3,30.51,SW,231,0.0,3.0,92,0.00,,---,0.00,58.00,VWS V14.01,2013-01-28 14:00:00,
2013-01-28 09:02:00,33.4,31.3,30.51,SW,231,0.0,3.0,92,0.00,,---,0.00,58.00,VWS V14.01,2013-01-28 14:02:00,
2013-01-28 09:07:00,33.6,31.5,30.51,SW,231,0.0,0.0,92,0.00,,---,0.00,56.00,VWS V14.01,2013-01-28 14:07:00,
2013-01-28 09:12:00,33.9,31.8,30.51,SW,231,0.0,0.0,92,0.00,,---,0.00,56.00,VWS V14.01,2013-01-28 14:12:00,
2013-01-28 09:17:00,34.1,32.0,30.51,SW,231,0.0,0.0,92,0.00,,---,0.00,28.00,VWS V14.01,2013-01-28 14:17:00,
2013-01-28 09:22:00,34.2,32.1,30.51,SW,231,0.0,0.0,92,0.00,,---,0.00,54.00,VWS V14.01,2013-01-28 14:22:00,
2013-01-28 09:27:00,34.3,32.2,30.51,SW,231,0.0,0.0,92,0.00,,---,0.00,63.00,VWS V14.01,2013-01-28 14:27:00,
2013-01-28 09:30:00,34.6,32.2,30.51,SW,231,0.0,2.0,91,0.00,,---,0.00,53.00,VWS V14.01,2013-01-28 14:30:00,
2013-01-28 09:32:00,34.6,32.2,30.50,SW,231,0.0,0.0,91,0.00,,---,0.00,63.00,VWS V14.01,2013-01-28 14:32:00,
2013-01-28 09:37:00,34.9,32.5,30.51,SW,231,0.0,1.0,91,0.00,,---,0.00,69.00,VWS V14.01,2013-01-28 14:37:00,
2013-01-28 09:42:00,35.2,32.8,30.51,SW,231,0.0,1.0,91,0.00,,---,0.00,236.00,VWS V14.01,2013-01-28 14:42:00,
2013-01-28 09:47:00,35.8,33.4,30.50,SW,231,1.0,2.0,91,0.01,,---,0.01,327.00,VWS V14.01,2013-01-28 14:47:00,
2013-01-28 09:52:00,36.5,33.8,30.50,SW,231,0.0,2.0,90,0.01,,---,0.01,341.00,VWS V14.01,2013-01-28 14:52:00,
2013-01-28 09:58:00,37.8,35.1,30.50,SW,231,0.0,2.0,90,0.01,,---,0.01,355.00,VWS V14.01,2013-01-28 14:58:00,
2013-01-28 10:00:00,38.7,35.5,30.50,SW,231,0.0,2.0,88,0.02,,---,0.02,366.00,VWS V14.01,2013-01-28 15:00:00,
2013-01-28 10:03:00,38.8,35.6,30.50,SW,231,0.0,0.0,88,0.02,,---,0.02,367.00,VWS V14.01,2013-01-28 15:03:00,
2013-01-28 10:08:00,39.9,36.1,30.50,SW,231,1.0,1.0,86,0.02,,---,0.02,380.00,VWS V14.01,2013-01-28 15:08:00,
2013-01-28 10:13:00,40.9,36.8,30.50,SSW,212,2.0,4.0,85,0.02,,---,0.02,394.00,VWS V14.01,2013-01-28 15:13:00,
2013-01-28 10:18:00,41.8,37.0,30.50,SW,217,0.0,10.0,83,0.02,,---,0.02,404.00,VWS V14.01,2013-01-28 15:18:00,
2013-01-28 10:23:00,42.5,37.1,30.49,SW,229,0.0,10.0,81,0.03,,---,0.03,413.00,VWS V14.01,2013-01-28 15:23:00,
2013-01-28 10:28:00,43.0,36.9,30.49,South,187,0.0,10.0,79,0.03,,---,0.03,425.00,VWS V14.01,2013-01-28 15:28:00,
2013-01-28 10:30:00,43.4,37.0,30.49,SSE,161,4.0,11.0,78,0.03,,---,0.03,431.00,VWS V14.01,2013-01-28 15:30:00,
2013-01-28 10:33:00,43.4,37.0,30.49,South,174,5.0,11.0,78,0.03,,---,0.03,434.00,VWS V14.01,2013-01-28 15:33:00,
2013-01-28 10:38:00,43.9,37.5,30.49,SW,229,0.0,11.0,78,0.03,,---,0.03,445.00,VWS V14.01,2013-01-28 15:38:00,
2013-01-28 10:43:00,44.5,37.8,30.49,South,191,3.0,11.0,77,0.03,,---,0.03,454.00,VWS V14.01,2013-01-28 15:43:00,
2013-01-28 10:48:00,45.1,38.0,30.48,SSW,193,1.0,11.0,76,0.04,,---,0.04,469.00,VWS V14.01,2013-01-28 15:48:00,
2013-01-28 10:53:00,45.9,38.4,30.48,SSW,197,0.0,11.0,75,0.04,,---,0.04,478.00,VWS V14.01,2013-01-28 15:53:00,
2013-01-28 10:58:00,46.7,39.2,30.48,South,184,0.0,11.0,75,0.04,,---,0.04,490.00,VWS V14.01,2013-01-28 15:58:00,
2013-01-28 11:00:00,47.4,39.5,30.48,SSW,208,3.0,11.0,74,0.04,,---,0.04,497.00,VWS V14.01,2013-01-28 16:00:00,
2013-01-28 11:03:00,47.7,39.5,30.48,SSW,205,4.0,5.0,73,0.02,,---,0.04,499.00,VWS V14.01,2013-01-28 16:03:00,
2013-01-28 11:08:00,48.3,39.7,30.47,South,171,0.0,7.0,72,0.02,,---,0.04,508.00,VWS V14.01,2013-01-28 16:08:00,
2013-01-28 11:13:00,48.9,40.3,30.47,SSE,167,1.0,8.0,72,0.02,,---,0.04,519.00,VWS V14.01,2013-01-28 16:13:00,
2013-01-28 11:18:00,49.6,40.6,30.47,SSW,206,2.0,8.0,71,0.03,,---,0.05,524.00,VWS V14.01,2013-01-28 16:18:00,
2013-01-28 11:23:00,50.1,40.7,30.46,SW,233,3.0,8.0,70,0.03,,---,0.05,531.00,VWS V14.01,2013-01-28 16:23:00,
2013-01-28 11:29:00,50.8,41.0,30.46,SSE,166,0.0,9.0,69,0.03,,---,0.05,536.00,VWS V14.01,2013-01-28 16:29:00,
2013-01-28 11:30:00,51.2,41.4,30.46,South,178,3.0,9.0,69,0.03,,---,0.05,541.00,VWS V14.01,2013-01-28 16:30:00,
2013-01-28 11:34:00,51.4,41.2,30.46,South,185,3.0,10.0,68,0.02,,---,0.05,545.00,VWS V14.01,2013-01-28 16:34:00,
2013-01-28 11:39:00,51.8,41.2,30.46,SSE,154,5.0,11.0,67,0.02,,---,0.05,550.00,VWS V14.01,2013-01-28 16:39:00,
2013-01-28 11:44:00,52.1,41.5,30.45,SSW,212,4.0,13.0,67,0.02,,---,0.05,554.00,VWS V14.01,2013-01-28 16:44:00,
2013-01-28 11:49:00,52.3,41.7,30.45,SSE,157,3.0,13.0,67,0.02,,---,0.05,561.00,VWS V14.01,2013-01-28 16:49:00,
2013-01-28 11:54:00,52.8,41.8,30.45,SW,221,0.0,13.0,66,0.02,,---,0.05,564.00,VWS V14.01,2013-01-28 16:54:00,
2013-01-28 11:59:00,53.3,41.8,30.45,SSE,160,0.0,13.0,65,0.02,,---,0.05,568.00,VWS V14.01,2013-01-28 16:59:00,
2013-01-28 12:00:00,53.3,41.8,30.44,SSW,195,3.0,13.0,65,0.03,,---,0.06,571.00,VWS V14.01,2013-01-28 17:00:00,
2013-01-28 12:04:00,53.3,41.8,30.44,SSE,166,2.0,5.0,65,0.02,,---,0.06,573.00,VWS V14.01,2013-01-28 17:04:00,
2013-01-28 12:09:00,53.3,41.8,30.44,SSE,167,4.0,6.0,65,0.02,,---,0.06,575.00,VWS V14.01,2013-01-28 17:09:00,
2013-01-28 12:14:00,53.7,42.2,30.43,SSE,164,0.0,6.0,65,0.02,,---,0.06,578.00,VWS V14.01,2013-01-28 17:14:00,
2013-01-28 12:19:00,54.1,41.8,30.43,South,180,0.0,6.0,63,0.02,,---,0.06,577.00,VWS V14.01,2013-01-28 17:19:00,
2013-01-28 12:24:00,54.2,41.5,30.42,South,178,4.0,6.0,62,0.02,,---,0.06,580.00,VWS V14.01,2013-01-28 17:24:00,
2013-01-28 12:29:00,53.4,41.1,30.41,ESE,105,0.0,6.0,63,0.02,,---,0.06,580.00,VWS V14.01,2013-01-28 17:29:00,
2013-01-28 12:30:00,52.6,40.4,30.41,ENE,74,0.0,6.0,63,0.02,,---,0.06,582.00,VWS V14.01,2013-01-28 17:30:00,
2013-01-28 12:34:00,52.3,40.5,30.41,East,89,0.0,3.0,64,0.01,,---,0.06,582.00,VWS V14.01,2013-01-28 17:34:00,
2013-01-28 12:39:00,51.9,40.5,30.41,SSE,152,0.0,6.0,65,0.01,,---,0.06,582.00,VWS V14.01,2013-01-28 17:39:00,
2013-01-28 12:44:00,52.4,40.6,30.41,SSW,202,0.0,6.0,64,0.01,,---,0.06,582.00,VWS V14.01,2013-01-28 17:44:00,
2013-01-28 12:49:00,52.7,40.5,30.40,ENE,71,5.0,10.0,63,0.01,,---,0.06,578.00,VWS V14.01,2013-01-28 17:49:00,
2013-01-28 12:54:00,52.2,40.4,30.40,SE,134,0.0,10.0,64,0.01,,---,0.06,577.00,VWS V14.01,2013-01-28 17:54:00,
2013-01-28 12:59:00,51.9,40.1,30.39,SE,140,0.0,10.0,64,0.01,,---,0.06,573.00,VWS V14.01,2013-01-28 17:59:00,
2013-01-28 13:00:00,51.8,40.4,30.39,SE,143,3.0,10.0,65,0.01,,---,0.06,573.00,VWS V14.01,2013-01-28 18:00:00,
2013-01-28 13:04:00,51.8,40.4,30.39,SSE,160,0.0,5.0,65,0.00,,---,0.06,570.00,VWS V14.01,2013-01-28 18:04:00,
2013-01-28 13:09:00,51.8,40.8,30.39,SE,125,0.0,6.0,66,0.00,,---,0.06,566.00,VWS V14.01,2013-01-28 18:09:00,
2013-01-28 13:14:00,52.0,40.6,30.38,SSE,156,1.0,7.0,65,0.00,,---,0.06,563.00,VWS V14.01,2013-01-28 18:14:00,
2013-01-28 13:19:00,51.8,40.4,30.38,ENE,66,1.0,9.0,65,0.00,,---,0.06,555.00,VWS V14.01,2013-01-28 18:19:00,
2013-01-28 13:24:00,51.6,40.2,30.37,SE,138,0.0,9.0,65,0.00,,---,0.06,550.00,VWS V14.01,2013-01-28 18:24:00,
2013-01-28 13:29:00,51.2,40.2,30.37,NNE,16,1.0,9.0,66,0.00,,---,0.06,545.00,VWS V14.01,2013-01-28 18:29:00,
2013-01-28 13:30:00,51.1,39.8,30.37,NE,55,1.0,9.0,65,0.00,,---,0.06,545.00,VWS V14.01,2013-01-28 18:30:00,
2013-01-28 13:35:00,51.2,40.2,30.37,South,169,4.0,7.0,66,0.00,,---,0.06,545.00,VWS V14.01,2013-01-28 18:35:00,
2013-01-28 13:40:00,51.6,40.6,30.36,SSE,147,2.0,7.0,66,0.00,,---,0.06,536.00,VWS V14.01,2013-01-28 18:40:00,
2013-01-28 13:45:00,51.9,40.5,30.36,SSE,166,3.0,7.0,65,0.00,,---,0.06,531.00,VWS V14.01,2013-01-28 18:45:00,
2013-01-28 13:50:00,52.3,40.9,30.36,South,170,5.0,11.0,65,0.00,,---,0.06,524.00,VWS V14.01,2013-01-28 18:50:00,
2013-01-28 13:55:00,52.5,40.7,30.35,South,170,6.0,11.0,64,0.00,,---,0.06,519.00,VWS V14.01,2013-01-28 18:55:00,
2013-01-28 14:00:00,52.6,40.8,30.35,SSE,165,0.0,11.0,64,0.00,,---,0.06,512.00,VWS V14.01,2013-01-28 19:00:00,
2013-01-28 14:05:00,52.9,41.1,30.35,SSE,150,2.0,9.0,64,0.00,,---,0.06,504.00,VWS V14.01,2013-01-28 19:05:00,
2013-01-28 14:10:00,53.0,41.2,30.35,East,101,0.0,9.0,64,0.00,,---,0.06,496.00,VWS V14.01,2013-01-28 19:10:00,
2013-01-28 14:15:00,53.2,41.8,30.35,SW,227,0.0,9.0,65,0.00,,---,0.06,489.00,VWS V14.01,2013-01-28 19:15:00,
2013-01-28 14:20:00,53.1,41.3,30.35,SE,140,1.0,11.0,64,0.00,,---,0.06,480.00,VWS V14.01,2013-01-28 19:20:00,
2013-01-28 14:25:00,53.0,41.2,30.34,South,171,5.0,11.0,64,0.00,,---,0.06,473.00,VWS V14.01,2013-01-28 19:25:00,
2013-01-28 14:30:00,53.0,41.2,30.34,SSE,160,4.0,11.0,64,0.00,,---,0.06,464.00,VWS V14.01,2013-01-28 19:30:00,
2013-01-28 14:35:00,53.0,41.6,30.34,SE,136,1.0,9.0,65,0.00,,---,0.06,457.00,VWS V14.01,2013-01-28 19:35:00,
2013-01-28 14:40:00,53.0,41.2,30.33,South,187,0.0,9.0,64,0.00,,---,0.06,448.00,VWS V14.01,2013-01-28 19:40:00,
2013-01-28 14:45:00,52.9,41.5,30.33,South,171,5.0,12.0,65,0.00,,---,0.06,436.00,VWS V14.01,2013-01-28 19:45:00,
2013-01-28 14:50:00,53.0,41.6,30.33,South,182,0.0,12.0,65,0.00,,---,0.06,424.00,VWS V14.01,2013-01-28 19:50:00,
2013-01-28 14:55:00,53.1,41.7,30.33,SW,217,5.0,12.0,65,0.00,,---,0.06,415.00,VWS V14.01,2013-01-28 19:55:00,
2013-01-28 15:00:00,53.1,41.7,30.32,SSE,152,2.0,12.0,65,0.00,,---,0.06,403.00,VWS V14.01,2013-01-28 20:00:00,
2013-01-28 15:01:00,53.1,41.7,30.32,South,171,4.0,12.0,65,0.00,,---,0.06,404.00,VWS V14.01,2013-01-28 20:01:00,
2013-01-28 15:06:00,53.0,41.6,30.32,SSE,152,5.0,6.0,65,0.00,,---,0.06,394.00,VWS V14.01,2013-01-28 20:06:00,
2013-01-28 15:11:00,53.0,42.0,30.32,SSE,163,3.0,10.0,66,0.00,,---,0.06,381.00,VWS V14.01,2013-01-28 20:11:00,
2013-01-28 15:16:00,52.9,41.9,30.32,ESE,123,0.0,10.0,66,0.00,,---,0.06,371.00,VWS V14.01,2013-01-28 20:16:00,
2013-01-28 15:21:00,52.8,41.8,30.33,SSE,150,0.0,10.0,66,0.00,,---,0.06,355.00,VWS V14.01,2013-01-28 20:21:00,
2013-01-28 15:26:00,53.1,42.1,30.33,SSE,157,1.0,10.0,66,0.00,,---,0.06,341.00,VWS V14.01,2013-01-28 20:26:00,
2013-01-28 15:30:00,53.5,42.0,30.33,South,170,1.0,10.0,65,0.00,,---,0.06,325.00,VWS V14.01,2013-01-28 20:30:00,
2013-01-28 15:31:00,53.5,42.4,30.33,South,180,3.0,10.0,66,0.00,,---,0.06,327.00,VWS V14.01,2013-01-28 20:31:00,
2013-01-28 15:36:00,53.6,42.1,30.33,SSE,165,2.0,7.0,65,0.00,,---,0.06,315.00,VWS V14.01,2013-01-28 20:36:00,
2013-01-28 15:41:00,53.7,42.2,30.33,South,169,0.0,7.0,65,0.00,,---,0.06,299.00,VWS V14.01,2013-01-28 20:41:00,
2013-01-28 15:46:00,53.6,42.1,30.33,SSW,209,3.0,7.0,65,0.00,,---,0.06,287.00,VWS V14.01,2013-01-28 20:46:00,
2013-01-28 15:51:00,53.5,42.0,30.33,SSW,198,4.0,7.0,65,0.00,,---,0.06,274.00,VWS V14.01,2013-01-28 20:51:00,
2013-01-28 15:56:00,53.1,42.1,30.33,West,280,0.0,10.0,66,0.00,,---,0.06,260.00,VWS V14.01,2013-01-28 20:56:00,
2013-01-28 16:00:00,52.9,42.3,30.33,West,265,0.0,10.0,67,0.00,,---,0.06,244.00,VWS V14.01,2013-01-28 21:00:00,
2013-01-28 16:01:00,52.9,42.3,30.33,West,269,0.0,10.0,67,0.00,,---,0.06,248.00,VWS V14.01,2013-01-28 21:01:00,
2013-01-28 16:06:00,52.5,41.9,30.33,NW,319,1.0,3.0,67,0.00,,---,0.06,230.00,VWS V14.01,2013-01-28 21:06:00,
2013-01-28 16:11:00,52.2,42.0,30.33,WNW,292,0.0,3.0,68,0.00,,---,0.06,95.00,VWS V14.01,2013-01-28 21:11:00,
2013-01-28 16:16:00,52.1,41.9,30.33,WSW,241,0.0,3.0,68,0.00,,---,0.06,197.00,VWS V14.01,2013-01-28 21:16:00,
2013-01-28 16:21:00,52.2,42.0,30.33,WSW,238,0.0,4.0,68,0.00,,---,0.06,163.00,VWS V14.01,2013-01-28 21:21:00,
2013-01-28 16:27:00,52.0,41.8,30.33,WSW,254,0.0,4.0,68,0.00,,---,0.06,162.00,VWS V14.01,2013-01-28 21:27:00,
2013-01-28 16:30:00,51.6,41.8,30.34,North,355,0.0,4.0,69,0.00,,---,0.06,121.00,VWS V14.01,2013-01-28 21:30:00,
2013-01-28 16:32:00,51.6,41.8,30.34,North,355,0.0,4.0,69,0.00,,---,0.06,121.00,VWS V14.01,2013-01-28 21:32:00,
2013-01-28 16:37:00,51.1,41.7,30.34,NNE,15,0.0,1.0,70,0.00,,---,0.06,111.00,VWS V14.01,2013-01-28 21:37:00,
2013-01-28 16:42:00,51.0,41.9,30.33,SSW,213,0.0,6.0,71,0.00,,---,0.06,90.00,VWS V14.01,2013-01-28 21:42:00,
2013-01-28 16:47:00,50.9,41.8,30.34,East,99,0.0,6.0,71,0.00,,---,0.06,47.00,VWS V14.01,2013-01-28 21:47:00,
2013-01-28 16:52:00,50.9,41.8,30.34,East,99,0.0,6.0,71,0.00,,---,0.06,35.00,VWS V14.01,2013-01-28 21:52:00,
2013-01-28 16:57:00,50.9,41.8,30.34,SSW,205,0.0,6.0,71,0.00,,---,0.06,33.00,VWS V14.01,2013-01-28 21:57:00,
2013-01-28 17:00:00,50.9,41.8,30.34,SSW,205,0.0,6.0,71,0.00,,---,0.06,21.00,VWS V14.01,2013-01-28 22:00:00,
2013-01-28 17:02:00,50.9,41.8,30.34,SSW,205,0.0,6.0,71,0.00,,---,0.06,21.00,VWS V14.01,2013-01-28 22:02:00,
2013-01-28 17:07:00,50.8,41.8,30.34,SW,236,0.0,1.0,71,0.00,,---,0.06,23.00,VWS V14.01,2013-01-28 22:07:00,
2013-01-28 17:12:00,50.6,41.9,30.34,SSW,195,0.0,3.0,72,0.00,,---,0.06,21.00,VWS V14.01,2013-01-28 22:12:00,
2013-01-28 17:17:00,50.3,42.0,30.34,SSE,164,0.0,6.0,73,0.00,,---,0.06,18.00,VWS V14.01,2013-01-28 22:17:00,
2013-01-28 17:22:00,49.9,41.6,30.34,SSW,207,0.0,6.0,73,0.00,,---,0.06,14.00,VWS V14.01,2013-01-28 22:22:00,
2013-01-28 17:27:00,49.7,41.8,30.34,WNW,295,0.0,6.0,74,0.00,,---,0.06,12.00,VWS V14.01,2013-01-28 22:27:00,
2013-01-28 17:30:00,49.5,41.9,30.34,WNW,295,0.0,6.0,75,0.00,,---,0.06,9.00,VWS V14.01,2013-01-28 22:30:00,
2013-01-28 17:32:00,49.5,41.9,30.34,WNW,295,0.0,0.0,75,0.00,,---,0.06,9.00,VWS V14.01,2013-01-28 22:32:00,
2013-01-28 17:37:00,49.2,41.6,30.34,ESE,107,0.0,4.0,75,0.00,,---,0.06,5.00,VWS V14.01,2013-01-28 22:37:00,
2013-01-28 17:42:00,48.9,42.0,30.34,SSW,203,0.0,4.0,77,0.00,,---,0.06,5.00,VWS V14.01,2013-01-28 22:42:00,
2013-01-28 17:47:00,48.6,42.1,30.34,SSE,159,1.0,5.0,78,0.00,,---,0.06,0.00,VWS V14.01,2013-01-28 22:47:00,
2013-01-28 17:52:00,48.3,42.1,30.34,SW,219,3.0,5.0,79,0.00,,---,0.06,0.00,VWS V14.01,2013-01-28 22:52:00,
2013-01-28 17:58:00,48.0,41.8,30.34,South,183,0.0,5.0,79,0.00,,---,0.06,0.00,VWS V14.01,2013-01-28 22:58:00,
2013-01-28 18:00:00,47.8,41.9,30.34,ENE,76,0.0,5.0,80,0.00,,---,0.06,0.00,VWS V14.01,2013-01-28 23:00:00,
2013-01-28 18:03:00,47.7,41.8,30.34,ENE,76,0.0,0.0,80,0.00,,---,0.06,0.00,VWS V14.01,2013-01-28 23:03:00,
2013-01-28 18:08:00,47.5,42.0,30.34,SSE,150,2.0,6.0,81,0.00,,---,0.06,0.00,VWS V14.01,2013-01-28 23:08:00,
2013-01-28 18:13:00,47.3,41.8,30.34,SSE,167,0.0,6.0,81,0.00,,---,0.06,0.00,VWS V14.01,2013-01-28 23:13:00,
2013-01-28 18:18:00,47.2,42.0,30.34,ENE,59,0.0,6.0,82,0.00,,---,0.06,0.00,VWS V14.01,2013-01-28 23:18:00,
2013-01-28 18:23:00,47.0,41.8,30.34,NNW,342,0.0,6.0,82,0.00,,---,0.06,0.00,VWS V14.01,2013-01-28 23:23:00,
2013-01-28 18:28:00,46.8,41.6,30.35,South,176,0.0,6.0,82,0.00,,---,0.06,0.00,VWS V14.01,2013-01-28 23:28:00,
2013-01-28 18:30:00,46.7,41.8,30.35,South,176,0.0,6.0,83,0.00,,---,0.06,0.00,VWS V14.01,2013-01-28 23:30:00,
2013-01-28 18:33:00,46.7,41.8,30.34,South,176,0.0,0.0,83,0.00,,---,0.06,0.00,VWS V14.01,2013-01-28 23:33:00,
2013-01-28 18:38:00,46.5,41.6,30.35,North,350,0.0,1.0,83,0.00,,---,0.06,0.00,VWS V14.01,2013-01-28 23:38:00,
2013-01-28 18:43:00,46.3,41.4,30.35,SE,137,0.0,2.0,83,0.00,,---,0.06,0.00,VWS V14.01,2013-01-28 23:43:00,
2013-01-28 18:48:00,46.1,41.2,30.35,East,97,0.0,2.0,83,0.00,,---,0.06,0.00,VWS V14.01,2013-01-28 23:48:00,
2013-01-28 18:54:00,46.0,41.4,30.35,East,97,0.0,2.0,84,0.00,,---,0.06,0.00,VWS V14.01,2013-01-28 23:54:00,
2013-01-28 18:59:00,45.9,41.3,30.35,NE,53,0.0,2.0,84,0.00,,---,0.06,0.00,VWS V14.01,2013-01-28 23:59:00,
2013-01-28 19:00:00,45.8,41.2,30.35,NE,53,0.0,2.0,84,0.00,,---,0.06,0.00,VWS V14.01,2013-01-29 00:00:00,
2013-01-28 19:04:00,45.7,41.2,30.35,NE,53,0.0,2.0,84,0.00,,---,0.06,0.00,VWS V14.01,2013-01-29 00:04:00,
2013-01-28 19:09:00,45.6,41.0,30.35,NE,53,0.0,2.0,84,0.00,,---,0.06,0.00,VWS V14.01,2013-01-29 00:09:00,
2013-01-28 19:14:00,45.4,40.9,30.35,NE,53,0.0,2.0,84,0.00,,---,0.06,0.00,VWS V14.01,2013-01-29 00:14:00,
2013-01-28 19:19:00,45.2,41.0,30.35,ESE,118,0.0,2.0,85,0.00,,---,0.06,0.00,VWS V14.01,2013-01-29 00:19:00,
2013-01-28 19:24:00,45.1,40.9,30.35,SSW,198,0.0,2.0,85,0.00,,---,0.06,0.00,VWS V14.01,2013-01-29 00:24:00,
2013-01-28 19:30:00,45.0,40.8,30.35,SSW,198,0.0,2.0,85,0.00,,---,0.06,0.00,VWS V14.01,2013-01-29 00:30:00,
2013-01-28 19:35:00,44.9,40.7,30.34,SSW,196,0.0,0.0,85,0.00,,---,0.06,0.00,VWS V14.01,2013-01-29 00:35:00,
2013-01-28 19:40:00,44.8,40.6,30.35,SSW,196,0.0,0.0,85,0.00,,---,0.06,0.00,VWS V14.01,2013-01-29 00:40:00,
2013-01-28 19:45:00,44.7,40.5,30.35,SSW,196,0.0,0.0,85,0.00,,---,0.06,0.00,VWS V14.01,2013-01-29 00:45:00,
2013-01-28 19:50:00,44.6,40.4,30.34,SSW,196,0.0,0.0,85,0.00,,---,0.06,0.00,VWS V14.01,2013-01-29 00:50:00,
2013-01-28 19:55:00,44.6,40.7,30.34,SSW,196,0.0,0.0,86,0.00,,---,0.06,0.00,VWS V14.01,2013-01-29 00:55:00,
2013-01-28 20:00:00,44.6,40.7,30.34,SSW,196,0.0,0.0,86,0.00,,---,0.06,0.00,VWS V14.01,2013-01-29 01:00:00,
2013-01-28 20:05:00,44.5,40.6,30.33,SSW,196,0.0,0.0,86,0.00,,---,0.06,0.00,VWS V14.01,2013-01-29 01:05:00,
2013-01-28 20:10:00,44.5,40.6,30.34,SSW,196,0.0,0.0,86,0.00,,---,0.06,0.00,VWS V14.01,2013-01-29 01:10:00,
2013-01-28 20:15:00,44.4,40.2,30.34,SSW,196,0.0,0.0,85,0.00,,---,0.06,0.00,VWS V14.01,2013-01-29 01:15:00,
2013-01-28 20:21:00,44.3,40.1,30.34,SSW,196,0.0,0.0,85,0.00,,---,0.06,0.00,VWS V14.01,2013-01-29 01:21:00,
2013-01-28 20:26:00,44.2,40.0,30.34,SSW,196,0.0,0.0,85,0.00,,---,0.06,0.00,VWS V14.01,2013-01-29 01:26:00,
2013-01-28 20:30:00,44.1,40.2,30.34,SSW,196,0.0,0.0,86,0.00,,---,0.06,0.00,VWS V14.01,2013-01-29 01:30:00,
2013-01-28 20:31:00,44.1,40.2,30.34,SSW,196,0.0,0.0,86,0.00,,---,0.06,0.00,VWS V14.01,2013-01-29 01:31:00,
2013-01-28 20:36:00,44.1,40.2,30.34,SSW,196,0.0,0.0,86,0.00,,---,0.06,0.00,VWS V14.01,2013-01-29 01:36:00,
2013-01-28 20:41:00,44.2,40.6,30.33,SSW,196,0.0,1.0,87,0.00,,---,0.06,0.00,VWS V14.01,2013-01-29 01:41:00,
2013-01-28 20:46:00,44.2,40.6,30.33,SSW,196,0.0,1.0,87,0.00,,---,0.06,0.00,VWS V14.01,2013-01-29 01:46:00,
2013-01-28 20:51:00,44.1,40.2,30.34,SSW,196,0.0,1.0,86,0.00,,---,0.06,0.00,VWS V14.01,2013-01-29 01:51:00,
2013-01-28 20:56:00,44.0,40.1,30.34,SSW,196,0.0,1.0,86,0.00,,---,0.06,0.00,VWS V14.01,2013-01-29 01:56:00,
2013-01-28 21:00:00,43.9,40.0,30.34,SSW,196,0.0,1.0,86,0.00,,---,0.06,0.00,VWS V14.01,2013-01-29 02:00:00,
2013-01-28 21:01:00,43.9,40.0,30.34,SSW,196,0.0,1.0,86,0.00,,---,0.06,0.00,VWS V14.01,2013-01-29 02:01:00,
2013-01-28 21:06:00,43.8,39.9,30.34,SSW,196,0.0,0.0,86,0.00,,---,0.06,0.00,VWS V14.01,2013-01-29 02:06:00,
2013-01-28 21:11:00,43.8,39.9,30.34,SSW,196,0.0,0.0,86,0.00,,---,0.06,0.00,VWS V14.01,2013-01-29 02:11:00,
2013-01-28 21:16:00,43.8,39.9,30.34,SSW,196,0.0,0.0,86,0.00,,---,0.06,0.00,VWS V14.01,2013-01-29 02:16:00,
2013-01-28 21:21:00,43.7,39.8,30.33,SSW,196,0.0,0.0,86,0.00,,---,0.06,0.00,VWS V14.01,2013-01-29 02:21:00,
2013-01-28 21:27:00,43.7,39.8,30.34,SSW,196,0.0,0.0,86,0.00,,---,0.06,0.00,VWS V14.01,2013-01-29 02:27:00,
2013-01-28 21:30:00,43.6,39.7,30.34,SSW,196,0.0,0.0,86,0.00,,---,0.06,0.00,VWS V14.01,2013-01-29 02:30:00,
2013-01-28 21:32:00,43.6,39.7,30.34,SSW,196,0.0,0.0,86,0.00,,---,0.06,0.00,VWS V14.01,2013-01-29 02:32:00,
2013-01-28 21:37:00,43.6,39.7,30.34,SSW,196,0.0,0.0,86,0.00,,---,0.06,0.00,VWS V14.01,2013-01-29 02:37:00,
2013-01-28 21:42:00,43.5,39.6,30.33,SSW,196,0.0,0.0,86,0.00,,---,0.06,0.00,VWS V14.01,2013-01-29 02:42:00,
2013-01-28 21:47:00,43.5,39.6,30.33,SSW,196,0.0,0.0,86,0.00,,---,0.06,0.00,VWS V14.01,2013-01-29 02:47:00,
2013-01-28 21:52:00,43.3,39.4,30.33,SSW,196,0.0,0.0,86,0.00,,---,0.06,0.00,VWS V14.01,2013-01-29 02:52:00,
2013-01-28 21:57:00,43.3,39.4,30.33,SSW,196,0.0,0.0,86,0.00,,---,0.06,0.00,VWS V14.01,2013-01-29 02:57:00,
2013-01-28 22:00:00,43.2,39.3,30.33,SSW,196,0.0,0.0,86,0.00,,---,0.06,0.00,VWS V14.01,2013-01-29 03:00:00,
2013-01-28 22:02:00,43.2,39.3,30.33,SSW,196,0.0,0.0,86,0.00,,---,0.06,0.00,VWS V14.01,2013-01-29 03:02:00,
2013-01-28 22:07:00,42.8,38.6,30.33,SSW,196,0.0,0.0,85,0.00,,---,0.06,0.00,VWS V14.01,2013-01-29 03:07:00,
2013-01-28 22:12:00,42.5,38.6,30.32,SSW,196,0.0,0.0,86,0.00,,---,0.06,0.00,VWS V14.01,2013-01-29 03:12:00,
2013-01-28 22:17:00,42.2,38.6,30.32,SSW,196,0.0,0.0,87,0.00,,---,0.06,0.00,VWS V14.01,2013-01-29 03:17:00,
2013-01-28 22:22:00,42.0,38.7,30.33,SSW,196,0.0,0.0,88,0.00,,---,0.06,0.00,VWS V14.01,2013-01-29 03:22:00,
2013-01-28 22:27:00,41.9,38.6,30.32,SSW,196,0.0,0.0,88,0.00,,---,0.06,0.00,VWS V14.01,2013-01-29 03:27:00,
2013-01-28 22:30:00,41.8,38.8,30.32,SSW,196,0.0,0.0,89,0.00,,---,0.06,0.00,VWS V14.01,2013-01-29 03:30:00,
2013-01-28 22:32:00,41.8,38.8,30.32,SSW,196,0.0,0.0,89,0.00,,---,0.06,0.00,VWS V14.01,2013-01-29 03:32:00,
2013-01-28 22:37:00,41.8,38.8,30.32,SSW,196,0.0,0.0,89,0.00,,---,0.06,0.00,VWS V14.01,2013-01-29 03:37:00,
2013-01-28 22:42:00,41.8,38.8,30.32,SSW,196,0.0,0.0,89,0.00,,---,0.06,0.00,VWS V14.01,2013-01-29 03:42:00,
2013-01-28 22:47:00,41.8,38.8,30.32,SSW,196,0.0,0.0,89,0.00,,---,0.06,0.00,VWS V14.01,2013-01-29 03:47:00,
2013-01-28 22:52:00,41.8,38.8,30.33,SSW,196,0.0,0.0,89,0.00,,---,0.06,0.00,VWS V14.01,2013-01-29 03:52:00,
2013-01-28 22:57:00,41.8,38.8,30.33,SSW,196,0.0,0.0,89,0.00,,---,0.06,0.00,VWS V14.01,2013-01-29 03:57:00,
2013-01-28 23:00:00,41.8,39.1,30.32,SSW,196,0.0,0.0,90,0.00,,---,0.06,0.00,VWS V14.01,2013-01-29 04:00:00,
2013-01-28 23:02:00,41.8,39.1,30.32,SSW,196,0.0,0.0,90,0.00,,---,0.06,0.00,VWS V14.01,2013-01-29 04:02:00,
2013-01-28 23:07:00,41.8,39.1,30.32,SSW,196,0.0,0.0,90,0.00,,---,0.06,0.00,VWS V14.01,2013-01-29 04:07:00,
2013-01-28 23:13:00,41.8,39.1,30.32,SSW,196,0.0,0.0,90,0.00,,---,0.06,0.00,VWS V14.01,2013-01-29 04:13:00,
2013-01-28 23:18:00,42.0,39.6,30.32,SSW,196,0.0,0.0,91,0.00,,---,0.06,0.00,VWS V14.01,2013-01-29 04:18:00,
2013-01-28 23:23:00,42.1,39.7,30.32,SSW,196,0.0,0.0,91,0.00,,---,0.06,0.00,VWS V14.01,2013-01-29 04:23:00,
2013-01-28 23:28:00,42.3,39.9,30.32,SSW,196,0.0,0.0,91,0.00,,---,0.06,0.00,VWS V14.01,2013-01-29 04:28:00,
2013-01-28 23:30:00,42.4,40.0,30.32,SSW,196,0.0,2.0,91,0.00,,---,0.06,0.00,VWS V14.01,2013-01-29 04:30:00,
2013-01-28 23:33:00,42.4,40.0,30.32,SSW,196,0.0,0.0,91,0.00,,---,0.06,0.00,VWS V14.01,2013-01-29 04:33:00,
2013-01-28 23:38:00,42.6,40.2,30.32,SSW,196,3.0,3.0,91,0.00,,---,0.06,0.00,VWS V14.01,2013-01-29 04:38:00,
2013-01-28 23:43:00,42.9,40.5,30.32,SSW,194,1.0,3.0,91,0.00,,---,0.06,0.00,VWS V14.01,2013-01-29 04:43:00,
2013-01-28 23:48:00,43.3,40.8,30.31,SSW,194,0.0,3.0,91,0.00,,---,0.06,0.00,VWS V14.01,2013-01-29 04:48:00,
2013-01-28 23:53:00,43.6,41.2,30.31,SSW,194,0.0,3.0,91,0.00,,---,0.06,0.00,VWS V14.01,2013-01-29 04:53:00,
2013-01-28 23:58:00,43.8,41.3,30.31,SSW,194,0.0,3.0,91,0.00,,---,0.06,0.00,VWS V14.01,2013-01-29 04:58:00,